sat.trackr.live / text

‹ back to catalog

STARLINK-37122

NORAD 68678 · 2026-077S

PAYLOAD ACTIVE UNKNOWN

§ Identity

Operator
Country
US
Launch date
2026-04-11
Launch site
AFWTR
Launch vehicle
Mass (kg)
RCS (m²)

Purposes: comms

External: N2YO · Heavens-Above · Gunter

§ Orbital elements

Epoch: 2026-09-19T21:45:29.369952Z

Period
93.91 min
Inclination
97.2846°
Eccentricity
0.0002046
Mean motion
15.33450005 rev/d
Perigee alt
464.1 km
Apogee alt
466.9 km
Semi-major
6,843.7 km
B*
3.5056e-4
RAAN
132.8352°
Arg perigee
94.5471°
Mean anomaly
265.6005°
Rev number
2,492

§ Raw data

STARLINK-371221 68678U 26077S   26262.90658993  .00011261  00000+0  35056-3 0  99962 68678  97.2846 132.8352 0002046  94.5471 265.6005 15.33450005 24926

JSON: /api/v1/satellites/68678 · /tle

For live sub-satellite position, see the globe view (requires WebGL).

§ Visibility from observer

Set your observer location to see the next 7 days of passes ≥ 10°. The values pass through the URL so the page stays shareable.

No JS? Fill the form by hand. The geolocation button needs JavaScript.